User: anonymous   Login
Location: West Cummington
(42.4920°N, 72.9680°W)
Time: 00:31:09
(UTC-04:00)
Language:

Cosmos 841 Rocket - Orbit

View from above orbital plane
View from above orbital plane
View from above satellite
View from above satellite

Ground track
Ground track

The orbit data is extracted from the following two-line orbital elements,

1 09023U 76069B   16177.87963930  .00000068  00000-0  30369-4 0  9998
2 09023  74.0437  34.3254 0018461 286.8149  73.0981 14.39497118 93557
Epoch (UTC): 25 June 2016 21:06:40
Eccentricity: 0.0018461
inclination: 74.0437°
perigee height: 747 km
apogee height: 773 km
right ascension of ascending node: 34.3254°
argument of perigee: 286.8149°
revolutions per day: 14.39497118
mean anomaly at epoch: 73.0981°
orbit number at epoch: 9355

The dashed part of the orbit path shows where the satellite is in the earth's shadow,  

DLR